Year,Month,Day,Hour,Minute,Value (Times are PST for temperature in C)
2018,06,12,00,00,8.90
2018,06,12,00,01,8.80
2018,06,12,00,02,8.80
2018,06,12,00,03,8.80
2018,06,12,00,04,8.80
2018,06,12,00,05,8.80
2018,06,12,00,06,8.80
2018,06,12,00,07,8.80
2018,06,12,00,08,8.80
2018,06,12,00,09,8.80
2018,06,12,00,10,8.80
2018,06,12,00,11,8.70
2018,06,12,00,12,8.70
2018,06,12,00,13,8.70
2018,06,12,00,14,8.70
2018,06,12,00,15,8.60
2018,06,12,00,16,8.60
2018,06,12,00,17,8.60
2018,06,12,00,18,8.60
2018,06,12,00,19,8.60
2018,06,12,00,20,8.50
2018,06,12,00,21,8.50
2018,06,12,00,22,8.40
2018,06,12,00,23,8.40
2018,06,12,00,24,8.40
2018,06,12,00,25,8.40
2018,06,12,00,26,8.40
2018,06,12,00,27,8.30
2018,06,12,00,28,8.30
2018,06,12,00,29,8.30
2018,06,12,00,30,8.30
2018,06,12,00,31,8.30
2018,06,12,00,32,8.30
2018,06,12,00,33,8.20
2018,06,12,00,34,8.20
2018,06,12,00,35,8.20
2018,06,12,00,36,8.20
2018,06,12,00,37,8.20
2018,06,12,00,38,8.20
2018,06,12,00,39,8.20
2018,06,12,00,40,8.10
2018,06,12,00,41,8.10
2018,06,12,00,42,8.10
2018,06,12,00,43,8.10
2018,06,12,00,44,8.10
2018,06,12,00,45,8.10
2018,06,12,00,46,8.00
2018,06,12,00,47,8.00
2018,06,12,00,48,8.00
2018,06,12,00,49,8.00
2018,06,12,00,50,8.00
2018,06,12,00,51,8.00
2018,06,12,00,52,8.00
2018,06,12,00,53,8.00
2018,06,12,00,54,8.00
2018,06,12,00,55,8.00
2018,06,12,00,56,7.90
2018,06,12,00,57,7.90
2018,06,12,00,58,7.90
2018,06,12,00,59,7.90
2018,06,12,01,00,7.90
2018,06,12,01,01,7.80
2018,06,12,01,02,7.80
2018,06,12,01,03,7.80
2018,06,12,01,04,7.80
2018,06,12,01,05,7.80
2018,06,12,01,06,7.80
2018,06,12,01,07,7.70
2018,06,12,01,08,7.70
2018,06,12,01,09,7.70
2018,06,12,01,10,7.70
2018,06,12,01,11,7.70
2018,06,12,01,12,7.60
2018,06,12,01,13,7.60
2018,06,12,01,14,7.60
2018,06,12,01,15,7.60
2018,06,12,01,16,7.60
2018,06,12,01,17,7.60
2018,06,12,01,18,7.60
2018,06,12,01,19,7.60
2018,06,12,01,20,7.60
2018,06,12,01,21,7.60
2018,06,12,01,22,7.60
2018,06,12,01,23,7.60
2018,06,12,01,24,7.60
2018,06,12,01,25,7.60
2018,06,12,01,26,7.50
2018,06,12,01,27,7.50
2018,06,12,01,28,7.50
2018,06,12,01,29,7.50
2018,06,12,01,30,7.50
2018,06,12,01,31,7.40
2018,06,12,01,32,7.40
2018,06,12,01,33,7.40
2018,06,12,01,34,7.30
2018,06,12,01,35,7.30
2018,06,12,01,36,7.30
2018,06,12,01,37,7.30
2018,06,12,01,38,7.30
2018,06,12,01,39,7.30
2018,06,12,01,40,7.20
2018,06,12,01,41,7.20
2018,06,12,01,42,7.20
2018,06,12,01,43,7.20
2018,06,12,01,44,7.20
2018,06,12,01,45,7.20
2018,06,12,01,46,7.10
2018,06,12,01,47,7.10
2018,06,12,01,48,7.10
2018,06,12,01,49,7.10
2018,06,12,01,50,7.10
2018,06,12,01,51,7.10
2018,06,12,01,52,7.10
2018,06,12,01,53,7.10
2018,06,12,01,54,7.10
2018,06,12,01,55,7.10
2018,06,12,01,56,7.10
2018,06,12,01,57,7.10
2018,06,12,01,58,7.10
2018,06,12,01,59,7.10
2018,06,12,02,00,7.00
2018,06,12,02,01,7.00
2018,06,12,02,02,7.00
2018,06,12,02,03,7.00
2018,06,12,02,04,7.00
2018,06,12,02,05,6.90
2018,06,12,02,06,6.90
2018,06,12,02,07,6.90
2018,06,12,02,08,6.90
2018,06,12,02,09,6.90
2018,06,12,02,10,6.80
2018,06,12,02,11,6.80
2018,06,12,02,12,6.80
2018,06,12,02,13,6.80
2018,06,12,02,14,6.80
2018,06,12,02,15,6.80
2018,06,12,02,16,6.80
2018,06,12,02,17,6.70
2018,06,12,02,18,6.70
2018,06,12,02,19,6.70
2018,06,12,02,20,6.70
2018,06,12,02,21,6.70
2018,06,12,02,22,6.70
2018,06,12,02,23,6.70
2018,06,12,02,24,6.60
2018,06,12,02,25,6.60
2018,06,12,02,26,6.60
2018,06,12,02,27,6.60
2018,06,12,02,28,6.60
2018,06,12,02,29,6.50
2018,06,12,02,30,6.50
2018,06,12,02,31,6.50
2018,06,12,02,32,6.50
2018,06,12,02,33,6.50
2018,06,12,02,34,6.50
2018,06,12,02,35,6.50
2018,06,12,02,36,6.50
2018,06,12,02,37,6.50
2018,06,12,02,38,6.50
2018,06,12,02,39,6.50
2018,06,12,02,40,6.50
2018,06,12,02,41,6.50
2018,06,12,02,42,6.50
2018,06,12,02,43,6.50
2018,06,12,02,44,6.40
2018,06,12,02,45,6.40
2018,06,12,02,46,6.40
2018,06,12,02,47,6.40
2018,06,12,02,48,6.40
2018,06,12,02,49,6.40
2018,06,12,02,50,6.40
2018,06,12,02,51,6.40
2018,06,12,02,52,6.40
2018,06,12,02,53,6.40
2018,06,12,02,54,6.40
2018,06,12,02,55,6.30
2018,06,12,02,56,6.30
2018,06,12,02,57,6.30
2018,06,12,02,58,6.30
2018,06,12,02,59,6.30
2018,06,12,03,00,6.30
2018,06,12,03,01,6.30
2018,06,12,03,02,6.20
2018,06,12,03,03,6.20
2018,06,12,03,04,6.20
2018,06,12,03,05,6.20
2018,06,12,03,06,6.20
2018,06,12,03,07,6.20
2018,06,12,03,08,6.10
2018,06,12,03,09,6.10
2018,06,12,03,10,6.10
2018,06,12,03,11,6.10
2018,06,12,03,12,6.10
2018,06,12,03,13,6.10
2018,06,12,03,14,6.00
2018,06,12,03,15,6.00
2018,06,12,03,16,6.00
2018,06,12,03,17,6.00
2018,06,12,03,18,6.00
2018,06,12,03,19,6.00
2018,06,12,03,20,5.90
2018,06,12,03,21,5.90
2018,06,12,03,22,5.90
2018,06,12,03,23,5.90
2018,06,12,03,24,5.90
2018,06,12,03,25,5.90
2018,06,12,03,26,5.90
2018,06,12,03,27,5.90
2018,06,12,03,28,5.90
2018,06,12,03,29,5.90
2018,06,12,03,30,5.90
2018,06,12,03,31,5.90
2018,06,12,03,32,5.90
2018,06,12,03,33,5.80
2018,06,12,03,34,5.80
2018,06,12,03,35,5.80
2018,06,12,03,36,5.80
2018,06,12,03,37,5.80
2018,06,12,03,38,5.80
2018,06,12,03,39,5.80
2018,06,12,03,40,5.80
2018,06,12,03,41,5.80
2018,06,12,03,42,5.80
2018,06,12,03,43,5.80
2018,06,12,03,44,5.80
2018,06,12,03,45,5.80
2018,06,12,03,46,5.80
2018,06,12,03,47,5.80
2018,06,12,03,48,5.80
2018,06,12,03,49,5.80
2018,06,12,03,50,5.80
2018,06,12,03,51,5.80
2018,06,12,03,52,5.80
2018,06,12,03,53,5.70
2018,06,12,03,54,5.70
2018,06,12,03,55,5.70
2018,06,12,03,56,5.70
2018,06,12,03,57,5.70
2018,06,12,03,58,5.70
2018,06,12,03,59,5.70
2018,06,12,04,00,5.70
2018,06,12,04,01,5.70
2018,06,12,04,02,5.70
2018,06,12,04,03,5.70
2018,06,12,04,04,5.70
2018,06,12,04,05,5.70
2018,06,12,04,06,5.60
2018,06,12,04,07,5.60
2018,06,12,04,08,5.60
2018,06,12,04,09,5.60
2018,06,12,04,10,5.60
2018,06,12,04,11,5.60
2018,06,12,04,12,5.60
2018,06,12,04,13,5.60
2018,06,12,04,14,5.50
2018,06,12,04,15,5.50
2018,06,12,04,16,5.50
2018,06,12,04,17,5.50
2018,06,12,04,18,5.40
2018,06,12,04,19,5.40
2018,06,12,04,20,5.40
2018,06,12,04,21,5.40
2018,06,12,04,22,5.40
2018,06,12,04,23,5.40
2018,06,12,04,24,5.40
2018,06,12,04,25,5.40
2018,06,12,04,26,5.40
2018,06,12,04,27,5.40
2018,06,12,04,28,5.40
2018,06,12,04,29,5.40
2018,06,12,04,30,5.40
2018,06,12,04,31,5.40
2018,06,12,04,32,5.40
2018,06,12,04,33,5.30
2018,06,12,04,34,5.30
2018,06,12,04,35,5.30
2018,06,12,04,36,5.30
2018,06,12,04,37,5.30
2018,06,12,04,38,5.30
2018,06,12,04,39,5.30
2018,06,12,04,40,5.30
2018,06,12,04,41,5.30
2018,06,12,04,42,5.30
2018,06,12,04,43,5.30
2018,06,12,04,44,5.30
2018,06,12,04,45,5.30
2018,06,12,04,46,5.30
2018,06,12,04,47,5.30
2018,06,12,04,48,5.30
2018,06,12,04,49,5.30
2018,06,12,04,50,5.30
2018,06,12,04,51,5.30
2018,06,12,04,52,5.30
2018,06,12,04,53,5.30
2018,06,12,04,54,5.30
2018,06,12,04,55,5.30
2018,06,12,04,56,5.30
2018,06,12,04,57,5.20
2018,06,12,04,58,5.20
2018,06,12,04,59,5.20
2018,06,12,05,00,5.20
2018,06,12,05,01,5.20
2018,06,12,05,02,5.20
2018,06,12,05,03,5.20
2018,06,12,05,04,5.20
2018,06,12,05,05,5.20
2018,06,12,05,06,5.20
2018,06,12,05,07,5.20
2018,06,12,05,08,5.20
2018,06,12,05,09,5.20
2018,06,12,05,10,5.20
2018,06,12,05,11,5.20
2018,06,12,05,12,5.20
2018,06,12,05,13,5.20
2018,06,12,05,14,5.20
2018,06,12,05,15,5.20
2018,06,12,05,16,5.20
2018,06,12,05,17,5.20
2018,06,12,05,18,5.20
2018,06,12,05,19,5.20
2018,06,12,05,20,5.20
2018,06,12,05,21,5.20
2018,06,12,05,22,5.20
2018,06,12,05,23,5.20
2018,06,12,05,24,5.20
2018,06,12,05,25,5.10
2018,06,12,05,26,5.10
2018,06,12,05,27,5.10
2018,06,12,05,28,5.10
2018,06,12,05,29,5.10
2018,06,12,05,30,5.20
2018,06,12,05,31,5.20
2018,06,12,05,32,5.20
2018,06,12,05,33,5.20
2018,06,12,05,34,5.20
2018,06,12,05,35,5.20
2018,06,12,05,36,5.20
2018,06,12,05,37,5.20
2018,06,12,05,38,5.20
2018,06,12,05,39,5.20
2018,06,12,05,40,5.20
2018,06,12,05,41,5.20
2018,06,12,05,42,5.20
2018,06,12,05,43,5.30
2018,06,12,05,44,5.30
2018,06,12,05,45,5.30
2018,06,12,05,46,5.30
2018,06,12,05,47,5.30
2018,06,12,05,48,5.30
2018,06,12,05,49,5.30
2018,06,12,05,50,5.30
2018,06,12,05,51,5.30
2018,06,12,05,52,5.40
2018,06,12,05,53,5.40
2018,06,12,05,54,5.40
2018,06,12,05,55,5.40
2018,06,12,05,56,5.40
2018,06,12,05,57,5.50
2018,06,12,05,58,5.50
2018,06,12,05,59,5.50
2018,06,12,06,00,5.50
2018,06,12,06,01,5.50
2018,06,12,06,02,5.60
2018,06,12,06,03,5.60
2018,06,12,06,04,5.60
2018,06,12,06,05,5.60
2018,06,12,06,06,5.70
2018,06,12,06,07,5.70
2018,06,12,06,08,5.70
2018,06,12,06,09,5.70
2018,06,12,06,10,5.80
2018,06,12,06,11,5.80
2018,06,12,06,12,5.80
2018,06,12,06,13,5.90
2018,06,12,06,14,6.00
2018,06,12,06,15,6.00
2018,06,12,06,16,6.10
2018,06,12,06,17,6.10
2018,06,12,06,18,6.10
2018,06,12,06,19,6.20
2018,06,12,06,20,6.20
2018,06,12,06,21,6.20
2018,06,12,06,22,6.20
2018,06,12,06,23,6.30
2018,06,12,06,24,6.30
2018,06,12,06,25,6.30
2018,06,12,06,26,6.40
2018,06,12,06,27,6.50
2018,06,12,06,28,6.60
2018,06,12,06,29,6.60
2018,06,12,06,30,6.70
2018,06,12,06,31,6.70
2018,06,12,06,32,6.70
2018,06,12,06,33,6.80
2018,06,12,06,34,6.80
2018,06,12,06,35,6.90
2018,06,12,06,36,7.00
2018,06,12,06,37,7.10
2018,06,12,06,38,7.10
2018,06,12,06,39,7.20
2018,06,12,06,40,7.30
2018,06,12,06,41,7.40
2018,06,12,06,42,7.50
2018,06,12,06,43,7.60
2018,06,12,06,44,7.70
2018,06,12,06,45,7.90
2018,06,12,06,46,8.00
2018,06,12,06,47,8.10
2018,06,12,06,48,8.20
2018,06,12,06,49,8.20
2018,06,12,06,50,8.30
2018,06,12,06,51,8.40
2018,06,12,06,52,8.50
2018,06,12,06,53,8.60
2018,06,12,06,54,8.60
2018,06,12,06,55,8.60
2018,06,12,06,56,8.70
2018,06,12,06,57,8.70
2018,06,12,06,58,8.70
2018,06,12,06,59,8.80
2018,06,12,07,00,8.80
2018,06,12,07,01,8.90
2018,06,12,07,02,9.00
2018,06,12,07,03,9.00
2018,06,12,07,04,9.10
2018,06,12,07,05,9.20
2018,06,12,07,06,9.20
2018,06,12,07,07,9.30
2018,06,12,07,08,9.30
2018,06,12,07,09,9.40
2018,06,12,07,10,9.40
2018,06,12,07,11,9.50
2018,06,12,07,12,9.50
2018,06,12,07,13,9.60
2018,06,12,07,14,9.60
2018,06,12,07,15,9.70
2018,06,12,07,16,9.70
2018,06,12,07,17,9.80
2018,06,12,07,18,9.80
2018,06,12,07,19,9.80
2018,06,12,07,20,9.90
2018,06,12,07,21,9.90
2018,06,12,07,22,10.00
2018,06,12,07,23,10.00
2018,06,12,07,24,10.10
2018,06,12,07,25,10.10
2018,06,12,07,26,10.20
2018,06,12,07,27,10.20
2018,06,12,07,28,10.30
2018,06,12,07,29,10.30
2018,06,12,07,30,10.40
2018,06,12,07,31,10.40
2018,06,12,07,32,10.50
2018,06,12,07,33,10.50
2018,06,12,07,34,10.60
2018,06,12,07,35,10.60
2018,06,12,07,36,10.60
2018,06,12,07,37,10.70
2018,06,12,07,38,10.70
2018,06,12,07,39,10.80
2018,06,12,07,40,10.80
2018,06,12,07,41,10.80
2018,06,12,07,42,10.80
2018,06,12,07,43,10.80
2018,06,12,07,44,10.90
2018,06,12,07,45,10.90
2018,06,12,07,46,10.90
2018,06,12,07,47,11.00
2018,06,12,07,48,11.00
2018,06,12,07,49,11.00
2018,06,12,07,50,11.00
2018,06,12,07,51,11.10
2018,06,12,07,52,11.10
2018,06,12,07,53,11.10
2018,06,12,07,54,11.20
2018,06,12,07,55,11.20
2018,06,12,07,56,11.20
2018,06,12,07,57,11.20
2018,06,12,07,58,11.30
2018,06,12,07,59,11.30
2018,06,12,08,00,11.30
2018,06,12,08,01,11.30
2018,06,12,08,02,11.40
2018,06,12,08,03,11.40
2018,06,12,08,04,11.40
2018,06,12,08,05,11.40
2018,06,12,08,06,11.40
2018,06,12,08,07,11.50
2018,06,12,08,08,11.50
2018,06,12,08,09,11.60
2018,06,12,08,10,11.60
2018,06,12,08,11,11.60
2018,06,12,08,12,11.60
2018,06,12,08,13,11.60
2018,06,12,08,14,11.60
2018,06,12,08,15,11.70
2018,06,12,08,16,11.80
2018,06,12,08,17,11.80
2018,06,12,08,18,11.90
2018,06,12,08,19,11.90
2018,06,12,08,20,12.00
2018,06,12,08,21,12.00
2018,06,12,08,22,12.00
2018,06,12,08,23,12.10
2018,06,12,08,24,12.20
2018,06,12,08,25,12.20
2018,06,12,08,26,12.30
2018,06,12,08,27,12.30
2018,06,12,08,28,12.40
2018,06,12,08,29,12.40
2018,06,12,08,30,12.50
2018,06,12,08,31,12.60
2018,06,12,08,32,12.60
2018,06,12,08,33,12.70
2018,06,12,08,34,12.70
2018,06,12,08,35,12.70
2018,06,12,08,36,12.80
2018,06,12,08,37,12.80
2018,06,12,08,38,12.90
2018,06,12,08,39,12.90
2018,06,12,08,40,13.00
2018,06,12,08,41,13.00
2018,06,12,08,42,13.00
2018,06,12,08,43,13.00
2018,06,12,08,44,13.10
2018,06,12,08,45,13.10
2018,06,12,08,46,13.10
2018,06,12,08,47,13.10
2018,06,12,08,48,13.20
2018,06,12,08,49,13.20
2018,06,12,08,50,13.20
2018,06,12,08,51,13.20
2018,06,12,08,52,13.20
2018,06,12,08,53,13.30
2018,06,12,08,54,13.30
2018,06,12,08,55,13.30
2018,06,12,08,56,13.30
2018,06,12,08,57,13.20
2018,06,12,08,58,13.20
2018,06,12,08,59,13.20
2018,06,12,09,00,13.20
2018,06,12,09,01,13.20
2018,06,12,09,02,13.20
2018,06,12,09,03,13.20
2018,06,12,09,04,13.30
2018,06,12,09,05,13.30
2018,06,12,09,06,13.30
2018,06,12,09,07,13.40
2018,06,12,09,08,13.40
2018,06,12,09,09,13.40
2018,06,12,09,10,13.40
2018,06,12,09,11,13.50
2018,06,12,09,12,13.50
2018,06,12,09,13,13.60
2018,06,12,09,14,13.60
2018,06,12,09,15,13.60
2018,06,12,09,16,13.60
2018,06,12,09,17,13.60
2018,06,12,09,18,13.70
2018,06,12,09,19,13.70
2018,06,12,09,20,13.70
2018,06,12,09,21,13.60
2018,06,12,09,22,13.60
2018,06,12,09,23,13.60
2018,06,12,09,24,13.60
2018,06,12,09,25,13.60
2018,06,12,09,26,13.70
2018,06,12,09,27,13.60
2018,06,12,09,28,13.70
2018,06,12,09,29,13.70
2018,06,12,09,30,13.70
2018,06,12,09,31,13.70
2018,06,12,09,32,13.80
2018,06,12,09,33,13.80
2018,06,12,09,34,13.80
2018,06,12,09,35,13.90
2018,06,12,09,36,13.90
2018,06,12,09,37,13.90
2018,06,12,09,38,14.00
2018,06,12,09,39,14.00
2018,06,12,09,40,14.00
2018,06,12,09,41,14.10
2018,06,12,09,42,14.20
2018,06,12,09,43,14.20
2018,06,12,09,44,14.20
2018,06,12,09,45,14.30
2018,06,12,09,46,14.30
2018,06,12,09,47,14.30
2018,06,12,09,48,14.30
2018,06,12,09,49,14.40
2018,06,12,09,50,14.40
2018,06,12,09,51,14.40
2018,06,12,09,52,14.40
2018,06,12,09,53,14.40
2018,06,12,09,54,14.50
2018,06,12,09,55,14.50
2018,06,12,09,56,14.50
2018,06,12,09,57,14.50
2018,06,12,09,58,14.60
2018,06,12,09,59,14.60
2018,06,12,10,00,14.60
2018,06,12,10,01,14.60
2018,06,12,10,02,14.60
2018,06,12,10,03,14.60
2018,06,12,10,04,14.60
2018,06,12,10,05,14.70
2018,06,12,10,06,14.70
2018,06,12,10,07,14.70
2018,06,12,10,08,14.70
2018,06,12,10,09,14.70
2018,06,12,10,10,14.70
2018,06,12,10,11,14.70
2018,06,12,10,12,14.80
2018,06,12,10,13,14.80
2018,06,12,10,14,14.80
2018,06,12,10,15,14.80
2018,06,12,10,16,14.80
2018,06,12,10,17,14.80
2018,06,12,10,18,14.80
2018,06,12,10,19,14.80
2018,06,12,10,20,14.80
2018,06,12,10,21,14.70
2018,06,12,10,22,14.70
2018,06,12,10,23,14.70
2018,06,12,10,24,14.70
2018,06,12,10,25,14.70
2018,06,12,10,26,14.70
2018,06,12,10,27,14.80
2018,06,12,10,28,14.80
2018,06,12,10,29,14.80
2018,06,12,10,30,14.80
2018,06,12,10,31,14.90
2018,06,12,10,32,14.80
2018,06,12,10,33,14.80
2018,06,12,10,34,14.90
2018,06,12,10,35,14.80
2018,06,12,10,36,14.80
2018,06,12,10,37,14.80
2018,06,12,10,38,14.80
2018,06,12,10,39,14.70
2018,06,12,10,40,14.70
2018,06,12,10,41,14.70
2018,06,12,10,42,14.80
2018,06,12,10,43,14.80
2018,06,12,10,44,14.80
2018,06,12,10,45,14.80
2018,06,12,10,46,14.80
2018,06,12,10,47,14.80
2018,06,12,10,48,14.90
2018,06,12,10,49,14.90
2018,06,12,10,50,14.90
2018,06,12,10,51,15.00
2018,06,12,10,52,15.10
2018,06,12,10,53,15.10
2018,06,12,10,54,15.00
2018,06,12,10,55,15.00
2018,06,12,10,56,15.00
2018,06,12,10,57,15.10
2018,06,12,10,58,15.10
2018,06,12,10,59,15.10
2018,06,12,11,00,15.10
2018,06,12,11,01,15.10
2018,06,12,11,02,15.20
2018,06,12,11,03,15.20
2018,06,12,11,04,15.20
2018,06,12,11,05,15.20
2018,06,12,11,06,15.20
2018,06,12,11,07,15.20
2018,06,12,11,08,15.20
2018,06,12,11,09,15.10
2018,06,12,11,10,15.10
2018,06,12,11,11,15.10
2018,06,12,11,12,15.10
2018,06,12,11,13,15.10
2018,06,12,11,14,15.10
2018,06,12,11,15,15.10
2018,06,12,11,16,15.10
2018,06,12,11,17,15.10
2018,06,12,11,18,15.10
2018,06,12,11,19,15.10
2018,06,12,11,20,15.10
2018,06,12,11,21,15.10
2018,06,12,11,22,15.10
2018,06,12,11,23,15.00
2018,06,12,11,24,15.00
2018,06,12,11,25,15.10
2018,06,12,11,26,15.10
2018,06,12,11,27,15.10
2018,06,12,11,28,15.10
2018,06,12,11,29,15.10
2018,06,12,11,30,15.10
2018,06,12,11,31,15.10
2018,06,12,11,32,15.00
2018,06,12,11,33,15.00
2018,06,12,11,34,15.00
2018,06,12,11,35,15.00
2018,06,12,11,36,15.00
2018,06,12,11,37,15.00
2018,06,12,11,38,15.10
2018,06,12,11,39,15.10
2018,06,12,11,40,15.10
2018,06,12,11,41,15.10
2018,06,12,11,42,15.00
2018,06,12,11,43,15.00
2018,06,12,11,44,15.00
2018,06,12,11,45,15.10
2018,06,12,11,46,15.10
2018,06,12,11,47,15.10
2018,06,12,11,48,15.10
2018,06,12,11,49,15.10
2018,06,12,11,50,15.10
2018,06,12,11,51,15.10
2018,06,12,11,52,15.10
2018,06,12,11,53,15.20
2018,06,12,11,54,15.20
2018,06,12,11,55,15.20
2018,06,12,11,56,15.20
2018,06,12,11,57,15.20
2018,06,12,11,58,15.20
2018,06,12,11,59,15.10
2018,06,12,12,00,15.10
2018,06,12,12,01,15.10
2018,06,12,12,02,15.10
2018,06,12,12,03,15.10
2018,06,12,12,04,15.10
2018,06,12,12,05,15.20
2018,06,12,12,06,15.20
2018,06,12,12,07,15.30
2018,06,12,12,08,15.30
2018,06,12,12,09,15.40
2018,06,12,12,10,15.40
2018,06,12,12,11,15.40
2018,06,12,12,12,15.40
2018,06,12,12,13,15.40
2018,06,12,12,14,15.30
2018,06,12,12,15,15.30
2018,06,12,12,16,15.30
2018,06,12,12,17,15.20
2018,06,12,12,18,15.30
2018,06,12,12,19,15.30
2018,06,12,12,20,15.30
2018,06,12,12,21,15.30
2018,06,12,12,22,15.30
2018,06,12,12,23,15.40
2018,06,12,12,24,15.40
2018,06,12,12,25,15.40
2018,06,12,12,26,15.50
2018,06,12,12,27,15.50
2018,06,12,12,28,15.60
2018,06,12,12,29,15.60
2018,06,12,12,30,15.60
2018,06,12,12,31,15.60
2018,06,12,12,32,15.60
2018,06,12,12,33,15.60
2018,06,12,12,34,15.60
2018,06,12,12,35,15.60
2018,06,12,12,36,15.60
2018,06,12,12,37,15.60
2018,06,12,12,38,15.70
2018,06,12,12,39,15.70
2018,06,12,12,40,15.70
2018,06,12,12,41,15.70
2018,06,12,12,42,15.60
2018,06,12,12,43,15.60
2018,06,12,12,44,15.60
2018,06,12,12,45,15.70
2018,06,12,12,46,15.70
2018,06,12,12,47,15.70
2018,06,12,12,48,15.70
2018,06,12,12,49,15.70
2018,06,12,12,50,15.70
2018,06,12,12,51,15.70
2018,06,12,12,52,15.70
2018,06,12,12,53,15.70
2018,06,12,12,54,15.70
2018,06,12,12,55,15.70
2018,06,12,12,56,15.70
2018,06,12,12,57,15.70
2018,06,12,12,58,15.70
2018,06,12,12,59,15.70
2018,06,12,13,00,15.70
2018,06,12,13,01,15.70
2018,06,12,13,02,15.70
2018,06,12,13,03,15.70
2018,06,12,13,04,15.70
2018,06,12,13,05,15.70
2018,06,12,13,06,15.70
2018,06,12,13,07,15.70
2018,06,12,13,08,15.60
2018,06,12,13,09,15.60
2018,06,12,13,10,15.60
2018,06,12,13,11,15.60
2018,06,12,13,12,15.70
2018,06,12,13,13,15.70
2018,06,12,13,14,15.70
2018,06,12,13,15,15.70
2018,06,12,13,16,15.80
2018,06,12,13,17,15.80
2018,06,12,13,18,15.80
2018,06,12,13,19,15.80
2018,06,12,13,20,15.80
2018,06,12,13,21,15.80
2018,06,12,13,22,15.80
2018,06,12,13,23,15.80
2018,06,12,13,24,15.80
2018,06,12,13,25,15.80
2018,06,12,13,26,15.80
2018,06,12,13,27,15.80
2018,06,12,13,28,15.80
2018,06,12,13,29,15.80
2018,06,12,13,30,15.80
2018,06,12,13,31,15.80
2018,06,12,13,32,15.70
2018,06,12,13,33,15.70
2018,06,12,13,34,15.70
2018,06,12,13,35,15.70
2018,06,12,13,36,15.70
2018,06,12,13,37,15.70
2018,06,12,13,38,15.70
2018,06,12,13,39,15.70
2018,06,12,13,40,15.60
2018,06,12,13,41,15.60
2018,06,12,13,42,15.60
2018,06,12,13,43,15.60
2018,06,12,13,44,15.50
2018,06,12,13,45,15.50
2018,06,12,13,46,15.40
2018,06,12,13,47,15.40
2018,06,12,13,48,15.40
2018,06,12,13,49,15.30
2018,06,12,13,50,15.30
2018,06,12,13,51,15.30
2018,06,12,13,52,15.40
2018,06,12,13,53,15.40
2018,06,12,13,54,15.40
2018,06,12,13,55,15.40
2018,06,12,13,56,15.50
2018,06,12,13,57,15.50
2018,06,12,13,58,15.50
2018,06,12,13,59,15.60
2018,06,12,14,00,15.60
2018,06,12,14,01,15.60
2018,06,12,14,02,15.70
2018,06,12,14,03,15.70
2018,06,12,14,04,15.80
2018,06,12,14,05,15.90
2018,06,12,14,06,16.00
2018,06,12,14,07,16.00
2018,06,12,14,08,16.20
2018,06,12,14,09,16.20
2018,06,12,14,10,16.30
2018,06,12,14,11,16.40
2018,06,12,14,12,16.40
2018,06,12,14,13,16.50
2018,06,12,14,14,16.60
2018,06,12,14,15,16.60
2018,06,12,14,16,16.70
2018,06,12,14,17,16.80
2018,06,12,14,18,16.80
2018,06,12,14,19,16.90
2018,06,12,14,20,16.90
2018,06,12,14,21,17.00
2018,06,12,14,22,17.00
2018,06,12,14,23,17.10
2018,06,12,14,24,17.10
2018,06,12,14,25,17.10
2018,06,12,14,26,17.20
2018,06,12,14,27,17.20
2018,06,12,14,28,17.20
2018,06,12,14,29,17.10
2018,06,12,14,30,17.10
2018,06,12,14,31,17.10
2018,06,12,14,32,17.00
2018,06,12,14,33,16.90
2018,06,12,14,34,16.90
2018,06,12,14,35,16.80
2018,06,12,14,36,16.80
2018,06,12,14,37,16.70
2018,06,12,14,38,16.70
2018,06,12,14,39,16.70
2018,06,12,14,40,16.70
2018,06,12,14,41,16.70
2018,06,12,14,42,16.70
2018,06,12,14,43,16.70
2018,06,12,14,44,16.70
2018,06,12,14,45,16.80
2018,06,12,14,46,16.80
2018,06,12,14,47,16.80
2018,06,12,14,48,16.80
2018,06,12,14,49,16.80
2018,06,12,14,50,16.80
2018,06,12,14,51,16.80
2018,06,12,14,52,16.80
2018,06,12,14,53,16.80
2018,06,12,14,54,16.90
2018,06,12,14,55,16.90
2018,06,12,14,56,16.90
2018,06,12,14,57,16.90
2018,06,12,14,58,16.90
2018,06,12,14,59,16.80
2018,06,12,15,00,16.80
2018,06,12,15,01,16.80
2018,06,12,15,02,16.80
2018,06,12,15,03,16.80
2018,06,12,15,04,16.80
2018,06,12,15,05,16.90
2018,06,12,15,06,16.90
2018,06,12,15,07,16.90
2018,06,12,15,08,16.90
2018,06,12,15,09,16.90
2018,06,12,15,10,16.90
2018,06,12,15,11,16.90
2018,06,12,15,12,16.80
2018,06,12,15,13,16.80
2018,06,12,15,14,16.80
2018,06,12,15,15,16.80
2018,06,12,15,16,16.80
2018,06,12,15,17,16.90
2018,06,12,15,18,16.90
2018,06,12,15,19,16.90
2018,06,12,15,20,16.90
2018,06,12,15,21,16.90
2018,06,12,15,22,16.90
2018,06,12,15,23,16.90
2018,06,12,15,24,16.90
2018,06,12,15,25,17.00
2018,06,12,15,26,17.00
2018,06,12,15,27,17.10
2018,06,12,15,28,17.10
2018,06,12,15,29,17.10
2018,06,12,15,30,17.10
2018,06,12,15,31,17.20
2018,06,12,15,32,17.20
2018,06,12,15,33,17.20
2018,06,12,15,34,17.20
2018,06,12,15,35,17.20
2018,06,12,15,36,17.20
2018,06,12,15,37,17.10
2018,06,12,15,38,17.20
2018,06,12,15,39,17.20
2018,06,12,15,40,17.20
2018,06,12,15,41,17.20
2018,06,12,15,42,17.20
2018,06,12,15,43,17.10
2018,06,12,15,44,17.10
2018,06,12,15,45,17.10
2018,06,12,15,46,17.10
2018,06,12,15,47,17.10
2018,06,12,15,48,17.10
2018,06,12,15,49,17.00
2018,06,12,15,50,17.00
2018,06,12,15,51,17.00
2018,06,12,15,52,16.90
2018,06,12,15,53,16.90
2018,06,12,15,54,16.90
2018,06,12,15,55,16.90
2018,06,12,15,56,16.90
2018,06,12,15,57,16.90
2018,06,12,15,58,16.90
2018,06,12,15,59,16.90
2018,06,12,16,00,17.00
2018,06,12,16,01,17.00
2018,06,12,16,02,17.00
2018,06,12,16,03,17.00
2018,06,12,16,04,17.10
2018,06,12,16,05,17.10
2018,06,12,16,06,17.10
2018,06,12,16,07,17.10
2018,06,12,16,08,17.20
2018,06,12,16,09,17.20
2018,06,12,16,10,17.20
2018,06,12,16,11,17.20
2018,06,12,16,12,17.20
2018,06,12,16,13,17.20
2018,06,12,16,14,17.20
2018,06,12,16,15,17.20
2018,06,12,16,16,17.10
2018,06,12,16,17,17.10
2018,06,12,16,18,17.10
2018,06,12,16,19,17.10
2018,06,12,16,20,17.00
2018,06,12,16,21,17.00
2018,06,12,16,22,17.00
2018,06,12,16,23,17.00
2018,06,12,16,24,16.90
2018,06,12,16,25,16.90
2018,06,12,16,26,16.90
2018,06,12,16,27,16.90
2018,06,12,16,28,16.90
2018,06,12,16,29,16.90
2018,06,12,16,30,17.00
2018,06,12,16,31,17.00
2018,06,12,16,32,17.00
2018,06,12,16,33,17.10
2018,06,12,16,34,17.10
2018,06,12,16,35,17.10
2018,06,12,16,36,17.10
2018,06,12,16,37,17.10
2018,06,12,16,38,17.10
2018,06,12,16,39,17.10
2018,06,12,16,40,17.10
2018,06,12,16,41,17.10
2018,06,12,16,42,17.10
2018,06,12,16,43,17.10
2018,06,12,16,44,17.10
2018,06,12,16,45,17.10
2018,06,12,16,46,17.10
2018,06,12,16,47,17.10
2018,06,12,16,48,17.10
2018,06,12,16,49,17.10
2018,06,12,16,50,17.10
2018,06,12,16,51,17.10
2018,06,12,16,52,17.10
2018,06,12,16,53,17.10
2018,06,12,16,54,17.10
2018,06,12,16,55,17.00
2018,06,12,16,56,17.00
2018,06,12,16,57,17.00
2018,06,12,16,58,17.10
2018,06,12,16,59,17.10
2018,06,12,17,00,17.10
2018,06,12,17,01,17.10
2018,06,12,17,02,17.10
2018,06,12,17,03,17.10
2018,06,12,17,04,17.10
2018,06,12,17,05,17.20
2018,06,12,17,06,17.20
2018,06,12,17,07,17.20
2018,06,12,17,08,17.20
2018,06,12,17,09,17.30
2018,06,12,17,10,17.30
2018,06,12,17,11,17.30
2018,06,12,17,12,17.30
2018,06,12,17,13,17.30
2018,06,12,17,14,17.30
2018,06,12,17,15,17.30
2018,06,12,17,16,17.30
2018,06,12,17,17,17.30
2018,06,12,17,18,17.30
2018,06,12,17,19,17.30
2018,06,12,17,20,17.30
2018,06,12,17,21,17.30
2018,06,12,17,22,17.30
2018,06,12,17,23,17.30
2018,06,12,17,24,17.30
2018,06,12,17,25,17.30
2018,06,12,17,26,17.30
2018,06,12,17,27,17.30
2018,06,12,17,28,17.40
2018,06,12,17,29,17.40
2018,06,12,17,30,17.40
2018,06,12,17,31,17.40
2018,06,12,17,32,17.40
2018,06,12,17,33,17.40
2018,06,12,17,34,17.50
2018,06,12,17,35,17.50
2018,06,12,17,36,17.60
2018,06,12,17,37,17.60
2018,06,12,17,38,17.60